FW6376 Weather Reports


time (UTC)temp
C
wind
direction
speed
KPH
gust
KPH
rain 1hr
cm
rain 24hr
cm
rain mn
cm
humidity
%
barometer
mb
20260507130045 8 288 0.0 4.8 0.00 1.65 0.00 75 1009.4
20260507124543 8 246 0.0 4.8 0.00 1.65 0.00 75 1009.5
20260507123040 7 234 0.0 3.2 0.00 1.65 0.00 80 1009.4
20260507121538 7 234 0.0 3.2 0.00 1.65 0.00 81 1009.5
20260507120038 7 234 0.0 1.6 0.00 1.65 0.00 81 1009.2
20260507114537 6 234 0.0 3.2 0.00 1.65 0.00 82 1009.3
20260507113035 6 234 0.0 3.2 0.00 1.65 0.00 81 1009.2
20260507111542 5 234 0.0 3.2 0.00 1.65 0.00 82 1009.2
20260507110034 5 234 0.0 0.0 0.00 1.65 0.00 81 1009.3
20260507104530 4 234 0.0 1.6 0.00 1.65 0.00 81 1009.3
20260507103035 4 234 0.0 1.6 0.00 1.65 0.00 81 1009.2
20260507101629 4 234 0.0 1.6 0.00 1.65 0.00 81 1009.1
20260507100033 4 234 0.0 1.6 0.00 1.65 0.00 81 1008.8
20260507094531 4 234 0.0 1.6 0.00 1.65 0.00 81 1009.2
20260507093022 4 234 0.0 1.6 0.00 1.65 0.00 81 1009.0
20260507091526 4 234 0.0 0.0 0.00 1.65 0.00 81 1009.2
20260507090019 4 234 0.0 0.0 0.00 1.65 0.00 81 1009.3
20260507084523 4 234 0.0 1.6 0.00 1.65 0.00 81 1009.2
20260507083015 5 234 0.0 1.6 0.00 1.65 0.00 81 1009.2
20260507081521 5 234 0.0 3.2 0.00 1.65 0.00 81 1009.2
20260507080013 5 234 0.0 0.0 0.00 1.65 0.00 81 1009.2
20260507074513 5 234 0.0 0.0 0.00 1.65 0.00 81 1008.9
20260507073009 5 234 0.0 0.0 0.00 1.65 0.00 81 1008.7
20260507071509 6 234 0.0 0.0 0.00 1.65 0.00 81 1008.6
20260507070011 6 234 0.0 0.0 0.00 1.65 0.00 81 1008.5
20260507064507 6 234 0.0 1.6 0.00 1.65 0.00 81 1008.6
20260507063005 6 234 0.0 4.8 0.00 1.65 0.00 81 1008.5
20260507061505 6 234 0.0 1.6 0.00 1.65 0.00 81 1008.5
20260507060010 6 234 0.0 1.6 0.00 1.65 0.00 81 1008.4
20260507054504 6 234 0.0 0.0 0.00 1.65 0.00 81 1009.2
20260507053001 6 234 0.0 0.0 0.00 1.65 0.00 81 1009.1
20260507051601 6 234 0.0 0.0 0.00 1.65 0.00 81 1008.8
20260507050058 6 234 0.0 1.6 0.00 1.65 0.00 80 1009.0
20260507044600 6 234 0.0 1.6 0.00 1.65 0.00 80 1008.5
20260507043057 6 234 0.0 0.0 0.00 1.65 0.00 80 1008.8
20260507041551 7 234 0.0 1.6 0.00 1.65 0.00 80 1008.8
20260507040048 7 234 0.0 3.2 0.00 1.65 0.00 80 1008.4
20260507034548 7 234 0.0 0.0 0.00 1.65 1.65 80 1008.4
20260507033046 7 234 0.0 0.0 0.03 1.65 1.65 80 1008.8
20260507031547 7 234 0.0 0.0 0.03 1.65 1.65 80 1008.9
20260507030050 7 234 0.0 1.6 0.03 1.65 1.65 80 1008.9
20260507024549 7 236 0.0 4.8 0.03 1.65 1.65 80 1008.9
20260507023044 7 279 0.0 3.2 0.03 1.63 1.63 80 1009.2
20260507021541 8 279 0.0 1.6 0.05 1.63 1.63 80 1009.1
20260507020046 8 279 0.0 0.0 0.10 1.63 1.63 80 1008.9
20260507014538 8 279 0.0 3.2 0.20 1.63 1.63 80 1008.9
20260507013036 8 287 0.0 0.0 0.23 1.60 1.60 80 1008.9
20260507011535 8 287 0.0 3.2 0.25 1.57 1.57 80 1008.8
20260507010040 8 360 0.0 3.2 0.20 1.52 1.52 80 1008.5
20260507004535 8 360 0.0 0.0 0.13 1.42 1.42 79 1008.3
20260507003033 8 360 0.0 4.8 0.08 1.37 1.37 78 1008.1
20260507001538 8 33 0.0 3.2 0.03 1.32 1.32 78 1007.8
20260507000033 8 76 0.0 12.9 0.00 1.30 1.30 78 1007.7
20260506234528 8 94 6.4 14.5 0.00 1.30 1.30 77 1007.0
20260506233026 9 51 0.0 14.5 0.00 1.30 1.30 77 1006.9
20260506231526 10 5 0.0 4.8 0.00 1.30 1.30 77 1006.8
20260506230021 10 109 1.6 9.7 0.00 1.30 1.30 77 1006.3
20260506224520 11 84 3.2 9.7 0.00 1.30 1.30 76 1006.4
20260506223016 11 71 1.6 8.0 0.00 1.30 1.30 77 1006.1
20260506221516 12 190 0.0 1.6 0.03 1.30 1.30 77 1005.8
20260506220016 12 190 0.0 3.2 0.10 1.30 1.30 77 1005.5
20260506214516 12 190 0.0 6.4 0.13 1.35 1.30 77 1005.4
20260506213015 13 169 0.0 4.8 0.18 1.35 1.30 76 1005.3
20260506211514 15 208 0.0 6.4 0.23 1.32 1.27 75 1005.2
20260506210020 16 26 0.0 3.2 0.20 1.24 1.19 78 1004.8
20260506204514 15 286 0.0 4.8 0.18 1.22 1.17 78 1004.7
20260506203012 15 288 0.0 6.4 0.13 1.17 1.12 78 1004.7
20260506201512 16 273 0.0 3.2 0.05 1.09 1.04 77 1004.8
20260506200010 16 263 3.2 6.4 0.03 1.04 0.99 77 1004.9
20260506194507 16 252 0.0 6.4 0.03 1.04 0.99 77 1004.9
20260506193007 16 235 0.0 8.0 0.03 1.04 0.99 78 1005.1
20260506191504 15 64 0.0 6.4 0.08 1.04 0.99 78 1005.1
20260506190001 15 360 0.0 4.8 0.38 1.02 0.97 79 1005.5
20260506184603 15 348 0.0 4.8 0.51 1.02 0.97 80 1005.7
20260506184502 15 348 0.0 1.6 0.53 1.02 0.97 80 1005.7
20260506183109 15 341 1.6 3.2 0.64 1.02 0.97 80 1005.7
20260506181600 14 338 0.0 9.7 0.69 0.97 0.91 79 1006.0
20260506180057 15 18 0.0 1.6 0.43 0.66 0.61 79 1006.0
20260506174555 15 218 0.0 3.2 0.30 0.51 0.46 79 1006.2
20260506173054 15 218 0.0 0.0 0.20 0.38 0.33 79 1006.4
20260506171557 15 218 0.0 0.0 0.15 0.28 0.23 79 1006.6
20260506170052 15 218 0.0 1.6 0.10 0.23 0.18 78 1006.5
20260506164557 15 218 0.0 0.0 0.08 0.20 0.15 77 1006.6
20260506163049 15 218 0.0 4.8 0.08 0.18 0.13 77 1007.1
20260506161546 15 217 0.0 1.6 0.03 0.13 0.08 77 1007.0
20260506160046 15 217 0.0 0.0 0.05 0.13 0.08 77 1007.1
20260506154601 15 217 0.0 0.0 0.05 0.13 0.08 76 1007.6
20260506153042 15 217 0.0 0.0 0.05 0.10 0.05 75 1007.9
20260506151541 15 217 0.0 0.0 0.05 0.10 0.05 74 1008.1
20260506150042 15 217 0.0 0.0 0.03 0.08 0.03 75 1008.1
20260506144547 15 217 0.0 0.0 0.03 0.08 0.03 73 1008.1
20260506143039 15 217 0.0 4.8 0.00 0.05 0.00 71 1008.1
20260506141538 15 65 0.0 1.6 0.00 0.05 0.00 71 1008.1
20260506140052 15 65 3.2 6.4 0.00 0.05 0.00 70 1008.2
20260506134532 15 100 0.0 3.2 0.00 0.05 0.00 70 1008.1
20260506133042 15 88 1.6 9.7 0.00 0.05 0.00 71 1008.1
20260506131531 15 109 0.0 9.7 0.00 0.05 0.00 72 1008.7